EDT,Max TemperatureF,Mean TemperatureF,Min TemperatureF,Max Dew PointF,MeanDew PointF,Min DewpointF,Max Humidity, Mean Humidity, Min Humidity, Max Sea Level PressureIn, Mean Sea Level PressureIn, Min Sea Level PressureIn, Max VisibilityMiles, Mean VisibilityMiles, Min VisibilityMiles, Max Wind SpeedMPH, Mean Wind SpeedMPH, Max Gust SpeedMPH,PrecipitationIn, CloudCover, Events, WindDirDegrees
2013-3-1,37,34,30,30,25,21,82,70,56,29.75,29.68,29.59,10,10,2,10,5,,0.00,8,Snow,274
2013-3-2,34,31,28,23,21,19,72,68,59,29.75,29.73,29.67,10,10,6,12,6,20,0.00,8,,279
2013-3-3,28,26,23,20,17,14,80,69,63,29.74,29.70,29.65,10,5,1,13,6,,0.01,8,Snow,285
2013-3-4,30,27,24,18,16,14,69,63,55,29.89,29.77,29.70,10,10,9,17,12,28,0.00,8,,270
2013-3-5,37,32,26,22,19,17,78,63,51,30.08,30.02,29.91,10,10,9,12,6,16,0.00,6,,272
2013-3-6,37,32,26,28,24,20,81,64,56,30.11,30.05,30.00,10,9,2,16,6,31,0.00,8,Snow,76
2013-3-7,34,31,28,27,24,18,86,75,55,30.14,30.09,30.06,10,4,0,9,6,23,0.12,8,Snow,272
2013-3-8,35,30,26,23,22,19,86,75,59,30.28,30.10,30.04,10,4,0,13,8,21,0.16,7,Snow,251
2013-3-9,46,31,16,23,18,11,85,63,33,30.36,30.31,30.26,10,10,8,12,6,,0.00,0,,268
2013-3-10,55,37,19,24,18,11,81,48,17,30.38,30.30,30.22,10,10,10,13,4,18,0.00,1,,105
2013-3-11,51,43,36,34,26,23,65,52,35,30.24,30.15,30.03,10,10,10,21,6,33,0.00,1,,88
2013-3-12,54,46,39,47,42,29,87,77,66,30.04,29.80,29.67,10,6,2,20,10,29,0.94,8,Rain,116
2013-3-13,45,38,32,27,21,15,70,54,32,29.84,29.81,29.77,10,10,10,18,11,30,0.00,4,,272
2013-3-14,30,26,21,17,9,3,68,52,39,29.89,29.84,29.82,10,8,2,23,11,33,0.00,8,Snow,280
2013-3-15,36,26,18,25,19,4,75,63,38,29.91,29.72,29.62,10,5,1,20,9,34,0.00,7,Snow,266
2013-3-16,35,28,21,21,11,8,74,51,35,29.89,29.82,29.73,10,9,2,12,6,25,0.00,6,Snow,275
2013-3-17,34,26,19,11,4,-1,58,41,24,30.32,30.09,29.91,10,10,10,14,7,24,0.00,1,,282
2013-3-18,37,24,12,20,6,-5,75,48,17,30.46,30.28,30.11,10,7,1,14,5,23,0.02,3,Snow,105
2013-3-19,35,30,26,28,24,19,93,76,69,30.08,29.80,29.67,10,3,0,28,14,38,0.22,8,Fog-Snow,105
2013-3-20,34,29,21,22,15,12,72,59,42,29.82,29.78,29.75,10,9,1,21,12,29,0.00,7,Snow,270
2013-3-21,35,20,6,13,7,-1,81,53,31,29.82,29.74,29.65,10,10,8,9,2,,0.00,3,,286
2013-3-22,33,23,14,21,14,5,74,64,48,29.81,29.72,29.66,10,6,1,21,6,29,0.00,7,Snow,271
2013-3-23,37,32,28,20,17,13,69,55,42,29.85,29.78,29.73,10,10,10,24,15,34,0.00,8,,271
2013-3-24,41,34,27,21,18,16,75,54,40,29.88,29.83,29.77,10,10,10,14,8,22,0.00,5,,294
2013-3-25,43,32,23,23,20,18,81,58,40,29.77,29.64,29.53,10,10,10,10,2,17,0.00,4,,80
2013-3-26,44,35,25,26,20,15,78,56,32,29.86,29.72,29.61,10,10,4,8,3,16,0.00,6,Snow,280
2013-3-27,48,32,19,31,23,14,85,68,39,29.93,29.88,29.84,10,10,5,13,2,23,0.01,4,Rain,306
2013-3-28,46,39,33,30,28,25,81,66,49,30.09,29.99,29.93,10,10,5,8,4,16,0.00,8,Rain-Snow,270
2013-3-29,48,37,28,28,26,23,85,58,44,30.12,30.09,30.04,10,10,10,9,5,17,0.00,6,,285
2013-3-30,54,40,27,26,21,16,82,50,23,30.14,30.10,30.05,10,10,10,12,2,18,0.00,2,,303
2013-3-31,54,39,24,36,26,17,81,64,24,30.14,29.94,29.72,10,8,2,15,4,26,0.26,4,Rain,113